KJ4CO Weather Reports


Display with metric or nautical units.
time (UTC)temp
F
wind
direction
speed
MPH
gust
MPH
rain 1hr
in
rain 24hr
in
rain mn
in
humidity
%
barometer
mb
20260507093020 46 343 0.0 0.0 0.00 0.02 0.00 96 1016.4
20260507091518 46 343 0.0 0.0 0.00 0.02 0.00 96 1016.3
20260507090021 46 343 0.0 0.0 0.00 0.02 0.00 96 1016.1
20260507084516 46 344 0.0 0.0 0.00 0.02 0.00 96 1016.0
20260507083015 47 344 0.0 0.0 0.00 0.02 0.00 96 1016.0
20260507081527 47 344 0.0 0.0 0.00 0.02 0.00 95 1015.8
20260507080011 47 344 0.0 0.0 0.00 0.02 0.00 95 1015.9
20260507074521 48 344 0.0 0.0 0.00 0.02 0.00 95 1015.8
20260507073008 48 344 0.0 0.0 0.00 0.02 0.00 95 1015.8
20260507071507 49 344 0.0 0.0 0.00 0.02 0.00 96 1015.7
20260507070008 49 344 0.0 0.0 0.00 0.18 0.00 96 1015.9
20260507064502 49 344 0.0 0.0 0.00 0.18 0.00 96 1015.9
20260507063100 50 344 0.0 0.0 0.00 0.18 0.00 95 1016.1
20260507061606 50 344 0.0 0.0 0.00 0.18 0.00 96 1016.0
20260507060057 50 344 0.0 0.0 0.00 0.18 0.00 95 1016.2
20260507054637 51 344 0.0 0.0 0.00 0.22 0.00 95 1016.1
20260507053054 51 344 0.0 0.0 0.00 0.22 0.00 95 1015.9
20260507051551 52 344 0.0 0.0 0.00 0.22 0.00 95 1016.0
20260507050054 52 344 0.0 0.0 0.00 0.22 0.00 96 1015.9
20260507044553 52 344 0.0 0.0 0.00 0.22 0.22 96 1016.1
20260507043047 52 344 0.0 0.0 0.00 0.22 0.22 96 1016.1
20260507041551 52 344 0.0 0.0 0.00 0.22 0.22 96 1016.0
20260507040046 52 344 0.0 0.0 0.00 0.22 0.22 96 1015.7
20260507034555 52 344 0.0 0.0 0.00 0.28 0.22 95 1015.6
20260507033051 52 344 0.0 0.0 0.00 0.28 0.22 95 1015.9
20260507031601 52 344 0.0 0.0 0.00 0.28 0.22 95 1015.6
20260507030051 52 343 0.0 0.0 0.00 0.28 0.22 95 1015.2
20260507024545 53 343 0.0 0.0 0.00 0.41 0.22 94 1015.3
20260507023042 53 343 0.0 0.0 0.00 0.41 0.22 94 1015.5
20260507021541 53 343 0.0 0.0 0.00 0.41 0.22 93 1016.1
20260507020040 53 343 0.0 0.0 0.00 0.41 0.22 93 1015.8
20260507014547 53 343 0.0 0.0 0.00 0.49 0.22 91 1015.6
20260507013039 54 343 0.0 0.0 0.00 0.49 0.22 91 1015.4
20260507011541 54 343 0.0 0.0 0.00 0.49 0.22 90 1015.6
20260507010041 54 343 0.0 0.0 0.00 0.49 0.22 89 1015.6
20260507004535 55 344 0.0 0.0 0.00 0.50 0.22 87 1015.3
20260507003038 55 344 0.0 0.0 0.00 0.50 0.22 87 1015.0
20260507001537 56 344 0.0 0.0 0.00 0.50 0.22 85 1014.5
20260507000038 57 344 0.0 0.0 0.00 0.50 0.22 86 1014.1
20260506234534 57 344 0.0 0.0 0.00 0.52 0.22 83 1013.7
20260506233036 57 344 0.0 0.0 0.00 0.52 0.22 82 1013.9
20260506231532 57 344 0.0 0.0 0.00 0.52 0.22 82 1013.8
20260506230032 57 344 0.0 0.0 0.00 0.52 0.22 80 1013.9
20260506224532 57 344 0.0 0.0 0.00 0.56 0.22 77 1014.6
20260506223031 57 344 0.0 0.0 0.00 0.56 0.22 77 1014.5
20260506221531 57 344 0.0 0.0 0.00 0.56 0.22 76 1014.7
20260506220030 58 344 0.0 0.0 0.00 0.56 0.22 75 1014.5
20260506214530 58 344 0.0 0.0 0.00 0.61 0.22 75 1014.6
20260506213031 58 344 0.0 0.0 0.00 0.61 0.22 78 1014.7
20260506211530 58 344 0.0 0.0 0.00 0.61 0.22 76 1014.9
20260506210030 58 344 0.0 0.0 0.00 0.61 0.22 80 1014.7
20260506204527 58 344 0.0 0.0 0.00 0.64 0.22 76 1014.6
20260506203026 58 344 0.0 0.0 0.00 0.64 0.22 75 1014.9
20260506201525 58 344 0.0 0.0 0.00 0.64 0.22 75 1014.4
20260506200024 58 344 0.0 0.0 0.00 0.64 0.22 76 1014.8
20260506194523 58 344 0.0 0.0 0.00 0.68 0.22 74 1015.3
20260506193023 59 344 0.0 0.0 0.00 0.68 0.22 74 1015.5
20260506191522 59 344 0.0 0.0 0.00 0.68 0.22 75 1015.0
20260506190020 59 344 0.0 0.0 0.00 0.68 0.22 74 1014.9
20260506184519 58 344 0.0 0.0 0.00 0.71 0.22 77 1014.9
20260506183015 58 344 0.0 0.0 0.00 0.71 0.22 78 1014.6
20260506181515 57 344 0.0 0.0 0.00 0.71 0.22 78 1014.9
20260506180014 57 344 0.0 0.0 0.00 0.71 0.22 78 1014.8
20260506174514 58 344 0.0 0.0 0.00 0.75 0.22 77 1015.2
20260506173013 58 333 0.0 0.0 0.00 0.75 0.22 80 1015.0
20260506171511 57 333 0.0 0.0 0.00 0.75 0.22 80 1014.9
20260506170007 57 332 0.0 0.0 0.00 0.75 0.22 84 1014.5
20260506164505 56 332 0.0 0.0 0.01 0.75 0.22 84 1014.7
20260506163003 55 332 0.0 0.0 0.01 0.75 0.22 86 1014.9
20260506161618 54 332 0.0 0.0 0.01 0.75 0.22 87 1014.8
20260506160058 54 332 0.0 0.0 0.01 0.75 0.22 87 1015.2
20260506154614 53 332 0.0 0.0 0.00 0.84 0.21 88 1015.2
20260506153106 53 332 0.0 0.0 0.00 0.84 0.21 89 1015.2
20260506151555 52 332 0.0 0.0 0.00 0.84 0.21 90 1014.9
20260506150050 52 334 0.0 0.0 0.00 0.84 0.21 91 1014.9
20260506144547 52 334 0.0 0.0 0.00 0.95 0.21 90 1014.6
20260506143100 52 324 0.0 0.0 0.00 0.95 0.21 91 1014.4
20260506141544 51 324 0.0 0.0 0.00 0.95 0.21 92 1014.3
20260506140041 51 324 0.0 0.0 0.00 0.95 0.21 93 1013.7
20260506134538 50 324 0.0 0.0 0.00 0.99 0.21 95 1013.5
20260506133036 49 1 0.0 0.0 0.00 0.99 0.21 96 1013.1
20260506131535 49 3 0.0 0.0 0.00 0.99 0.21 97 1013.2
20260506130036 48 3 0.0 0.0 0.00 0.99 0.21 97 1013.2
20260506124533 48 3 0.0 0.0 0.00 0.99 0.21 98 1012.9
20260506123035 47 3 0.0 0.0 0.00 0.99 0.21 97 1012.7
20260506121539 47 2 0.0 0.0 0.00 0.99 0.21 97 1012.9
20260506120031 47 3 0.0 0.0 0.00 0.99 0.21 97 1012.7
20260506114539 46 3 0.0 0.0 0.00 0.99 0.21 97 1012.4
20260506113029 46 3 0.0 0.0 0.00 0.99 0.21 97 1012.3
20260506111535 46 3 0.0 0.0 0.00 0.99 0.21 97 1012.7
20260506110028 46 3 0.0 0.0 0.00 0.99 0.21 97 1012.1
20260506104521 46 3 0.0 0.0 0.00 0.99 0.21 96 1011.4
20260506103020 47 5 0.0 0.0 0.01 0.99 0.21 97 1011.3
20260506101519 47 349 0.0 0.0 0.01 0.99 0.21 96 1011.5
20260506100016 48 16 0.0 0.0 0.01 0.99 0.21 96 1011.2
20260506094514 48 16 0.0 0.0 0.01 0.99 0.21 97 1011.2